Hourly Data Report for October 14, 2015

All times are specified in Local Standard Time (LST). Add 1 hour to adjust for Daylight Saving Time where and when it is observed.

CLYDE RIVER A
NUNAVUT

70°29'09.000" N
68°31'01.000" W
26.50 m
2400804
71090
YCY

Download Data

Hourly Data (October 2015)
Hourly Data Report for October 14, 2015
Temp Definition
°C
Dew Point Temp Definition
°C
Rel Hum Definition
%
Wind Dir Definition
10's deg

Wind Spd Definition
km/h
Visibility Definition
km
Stn Press Definition
kPa
Hmdx Definition


Wind Chill Definition


Weather Definition


TIME
00:00 Legend Double Dagger -2.3 -2.7 97 31 9 2.8 98.91   -6 Snow
01:00 Legend Double Dagger -2.3 -2.7 97 29 11 2.4 98.88   -6 Snow
02:00 Legend Double Dagger -2.0 -2.4 97 30 13 1.6 98.84   -6 Snow
03:00 Legend Double Dagger -2.2 -2.6 97 28 11 2.0 98.80   -6 Snow
04:00 Legend Double Dagger -2.3 -2.9 96 28 15 2.8 98.75   -7 Snow
05:00 Legend Double Dagger -2.0 -2.6 96 32 21 2.8 98.72   -8 Snow
06:00 Legend Double Dagger -2.1 -2.8 95 30 28 3.2 98.68   -9 Snow
07:00 Legend Double Dagger -2.5 -3.3 94 30 32 4.0 98.66   -10 Snow
08:00 Legend Double Dagger -2.7 -3.7 93 29 35 4.8 98.61   -11 Snow
09:00 Legend Double Dagger -2.9 -4.2 91 29 43 6.4 98.57   -12 Snow
10:00 Legend Double Dagger -3.1 -4.4 91 29 34 6.4 98.59   -11 Snow
11:00 Legend Double Dagger -3.2 -4.6 90 30 21 6.4 98.60   -9 Snow
12:00 Legend Double Dagger -3.5 -4.3 94 16 13 8.1 98.60   -8 Snow
13:00 Legend Double Dagger -2.9 -6.0 79 22 28 14.5 98.55   -10 Snow
14:00 Legend Double Dagger -3.2 -6.4 78 23 24 16.1 98.52   -10 Snow
15:00 Legend Double Dagger -3.5 -6.8 78 23 30 16.1 98.46   -11 Snow
16:00 Legend Double Dagger -4.4 -7.5 79 24 26 16.1 98.42   -12 LegendNANA
17:00 Legend Double Dagger -7.3 -10.5 78 31 5 16.1 98.39   -10 LegendNANA
18:00 Legend Double Dagger -9.1 -11.2 85 29 15 16.1 98.37   -16 LegendNANA
19:00 Legend Double Dagger -8.5 -11.2 81 26 9 16.1 98.34   -13 LegendNANA
20:00 Legend Double Dagger -8.9 -12.2 77 25 9 16.1 98.31   -14 LegendNANA
21:00 Legend Double Dagger -7.7 -12.0 72 27 13 16.1 98.26   -13 LegendNANA
22:00 Legend Double Dagger -8.0 -12.6 70 27 8 16.1 98.25   -12 LegendNANA
23:00 Legend Double Dagger -10.1 -13.1 79 28 24 16.1 98.20   -19 LegendNANA

Notes on Data Quality.

Legend

  • E = Estimated
  • M = Missing
  • NA = Not Available
  • ‡ = Partner data that is not subject to review by the National Climate Archives
Date modified: